STARLINK-35949, 66630

Orbit data source: Space-Track

STARLINK-35949, 66630 is a payload satellite owned by SpaceX/Seattle (US) in LEO that was launched on Sun, 23 Nov 2025 UTC via an FALCON 9 launch vehicle from the Air Force Western Test Range (AFWTR). Payload-class satellites include a variety of spacecraft equipped with specific instruments for various scientific and technological missions. These include communications satellites like Starlink; space stations such as the ISS; scientific satellites like the Hubble; Earth observation satellites from companies like Planet Labs, Umbra, and HawkEye 360; GPS; miniature CubeSats for education and research; and military/defense satellites.

Loading next visibility...
Identifier
66630, 2025-271P
Orbit
LEO
Country
Flag of USUS
Related business
Manufacturer
SpaceX/Seattle
Mission
Operational Commercial Communications
Bus & Motor
STARLINK V2MO, Unknown motor
Mass
575 kg wet, ~530 kg dry
Launch date (UTC)
2025-11-23 (10 months ago)
Launch vehicle
FALCON 9
Launch site
Air Force Western Test Range (AFWTR)
Object type
Payload
Rocket body
Debris
Shape & HBR
Box + 1 Pan, 17.7 m
Radar Cross Section
41.120 m², Large (>1 m²)

Expand to show TLE details & history
Last TLE update: 14 hours ago

TLE from 14 hours ago
0 STARLINK-35949
1 66630U 25271P   26265.37006610  .00011595  00000-0  35372-3 0  9996
2 66630  53.1604 301.1012 0001631  80.2835 279.8352 15.34404624 47759
Epoch: 2026-09-22T08:52Z
TLE epoch observation values (Epoch: 2026-09-22T08:52:53.711Z)
Latitude
0.00002°
Longitude
166.6409°
Altitude
463.4 km
Speed
7.636 km/s
True Right ascension
20h 04m 24s
True Declination
0° 00' 00"
Sunlit
Object was in full shadow at epoch
Visualization orbit readout
Latitude
Unknown
Longitude
Unknown
Altitude
Unknown
Speed
Unknown
Apparent Right ascension
Unknown
Apparent Declination
Unknown
Sunlit
N/A
Visualization observer readout
Local Sidereal Time
16:26:30
Azimuth
Unknown
Elevation
Unknown
Doppler factor
Unknown
Orbital elements
Apogee altitude
464.062 km
Perigee altitude
461.831 km
Semi-major axis
6,841.083 km
Eccentricity
0.00016
Inclination
53.1604°
RAAN
301.1012°
Arg. of periapsis
80.2835°
True anomaly
279.81678°
Mean anomaly
279.8352°
Eccentric anomaly
279.82599°
Mean motion
3.8358 °/min
Orbital period
93.85 mins
BSTAR
0.00035372
Loading maneuver chart data...
Computing Atmospheric mass density...
Loading historical data...
Loading historical data...
Loading historical data...
Loading historical data...
Loading historical data...
Loading historical data...
Loading historical data...

Documentation

Showing up to 5 results
|